Location: ??
(35.5052°N, 139.7262°E)
Time: 03:33:35
(UTC+00:00)

Cosmos 1626 - Pass Details

Date: 20 June 2021
Orbit: 489 x 492 km, 82.5° (Epoch: 26 July)

Event Time Altitude Azimuth Distance (km) Brightness Sun altitude
Exits shadow 12:02:34 39° 210° (SSW) 755 2.8 -19.9°
Maximum altitude 12:03:46 65° 277° (W) 542 2.3 -20.1°
Drops below altitude 10° 12:07:27 10° 1° (N) 1,691 5.5 -20.5°
Sets 12:09:35 0° 4° (N) 2,578 6.5 -20.8°
